User: anonymous   Login
Location: Newark
(39.6889°N, 28.1522°E)
Time: 05:21:41
(UTC+00:00)
Language:

MOZHAYETS 4 - Orbit

View from above orbital plane
View from above orbital plane
View from above satellite
View from above satellite

Ground track
Ground track

The orbit data is extracted from the following two-line orbital elements,

1 27939U 03042A   19339.77042694  .00000084  00000-0  23735-4 0  9999
2 27939  98.0640 112.5249 0011864 246.8099 113.1861 14.66822039865473
Epoch (UTC): 05 December 2019 18:29:24
Eccentricity: 0.0011864
inclination: 98.0640°
perigee height: 663 km
apogee height: 679 km
right ascension of ascending node: 112.5249°
argument of perigee: 246.8099°
revolutions per day: 14.66822039
mean anomaly at epoch: 113.1861°
orbit number at epoch: 86547

The dashed part of the orbit path shows where the satellite is in the earth's shadow,  

DLR